RH
34 35 36 35 32 32 33 31 28 27 27 26 25 23 18 15 20 24 17 7 3 3 4 16 6 5 5 6 9 13 15 14 14 12 12 10 7 8 10 10 11 11 12
31 37 35 34 33 32 35 35 32 27 29 31 29 26 23 17 15 21 18 8 4 5 9 58 8 7 6 5 6 6 8 7 8 7 6 6 9 10 10 11 11 11 11
37 34 34 34 34 35 38 37 33 29 30 32 34 32 26 21 15 15 20 14 7 9 66 61 8 8 8 8 7 6 6 6 6 8 10 10 10 11 11 11 11 10 9
36 33 33 34 34 38 39 37 34 32 32 32 35 33 29 24 19 14 15 20 15 12 13 9 9 9 9 9 9 9 10 10 10 10 11 11 11 10 10 10 13 16 20
40 33 32 34 33 40 38 38 38 33 35 33 33 35 34 28 23 19 15 15 21 18 12 9 8 8 8 9 9 9 10 10 10 11 13 16 19 20 20 20 18 18 17
44 34 32 34 32 40 39 37 39 37 36 36 34 36 36 32 26 23 20 16 15 17 21 22 22 22 22 22 22 22 21 20 19 18 18 19 20 21 20 20 21 20 20
43 37 34 34 33 39 40 38 39 39 39 40 39 40 38 36 31 25 23 22 21 20 18 18 18 18 19 20 20 20 21 21 22 22 22 22 22 21 20 21 20 20 21
44 46 41 35 34 38 42 40 39 40 40 41 42 41 41 39 41 40 36 28 24 24 23 24 24 24 24 24 24 24 23 23 23 23 24 24 24 23 23 23 24 23 23
38 39 43 37 35 38 44 42 41 41 41 42 43 43 43 43 42 41 45 45 42 38 33 29 27 26 26 27 27 26 25 25 25 24 24 25 24 24 23 23 23 23 24
40 41 41 40 37 38 44 44 43 42 42 43 43 43 45 44 44 46 45 44 45 46 46 45 43 39 36 33 31 28 26 25 26 26 25 24 23 24 26 26 26 26 24
45 37 42 45 40 38 44 46 45 44 44 44 45 44 44 46 46 45 46 47 46 47 48 47 47 48 47 46 43 40 35 30 27 26 24 25 25 25 26 24 23 20 15
46 41 41 46 45 42 40 45 46 46 46 46 46 46 45 46 47 47 47 47 48 48 49 50 50 50 49 48 47 45 44 40 34 30 26 26 26 24 21 18 16 14 10
40 46 43 41 48 47 45 44 48 48 46 46 46 47 47 46 47 48 49 48 48 48 49 50 51 51 51 50 50 48 47 45 42 36 31 27 25 22 18 15 12 11 11
37 42 47 48 47 52 55 52 55 55 50 48 48 47 47 47 47 47 49 50 49 49 50 51 52 52 52 51 51 50 49 48 46 43 37 30 26 23 19 17 14 13 13
37 38 40 45 48 50 55 57 55 52 51 50 49 48 48 48 48 48 48 49 50 50 52 52 53 54 53 52 51 50 50 49 48 46 42 35 29 25 25 26 25 24 24
40 40 40 37 40 45 54 52 50 53 52 51 51 50 50 49 49 49 50 50 50 51 54 54 54 54 53 52 52 52 49 46 48 49 46 38 31 29 31 30 29 30 32
43 43 40 38 36 32 37 43 47 48 53 52 52 51 50 51 52 53 52 52 52 52 56 56 55 55 54 55 50 48 47 48 48 51 48 41 34 32 32 32 37 38 38
40 39 40 41 38 39 35 37 43 51 55 47 48 54 55 54 56 56 55 53 54 53 57 58 56 56 56 54 50 52 54 57 52 50 50 43 37 34 34 38 40 40 40
41 39 40 43 40 39 40 39 45 49 51 51 48 47 49 51 53 53 54 55 54 53 59 57 57 55 55 55 56 58 57 56 54 52 51 46 40 37 38 42 45 44 43
46 48 45 42 43 42 41 42 43 44 47 44 45 48 48 49 51 52 53 56 55 53 56 58 60 58 58 55 57 63 61 55 55 54 53 49 43 40 41 44 46 47 46
36 41 48 50 49 51 52 51 47 43 45 48 44 51 55 54 53 56 55 58 56 55 59 62 60 58 58 57 59 65 66 57 57 60 58 53 46 44 46 48 49 51 50
16 22 33 42 50 54 56 56 55 54 53 54 56 51 50 51 48 54 55 58 63 62 66 65 62 62 63 62 64 74 69 67 61 66 64 60 54 48 48 49 52 55 56
26 23 21 22 24 23 26 43 54 57 62 63 65 54 46 43 48 54 58 60 60 65 69 69 71 69 69 70 76 82 77 75 73 71 70 66 64 59 53 52 55 58 60
18 19 25 31 34 33 30 29 28 32 45 52 55 60 75 77 76 64 68 64 62 70 71 68 74 76 78 78 86 78 89 78 89 82 78 78 76 73 70 60 55 56 59
24 22 20 20 20 21 25 35 39 42 39 38 36 37 67 75 76 78 71 67 65 65 70 73 77 80 84 86 85 95 91 95 94 96 95 92 88 82 81 78 69 71 76
18 20 22 21 21 21 21 22 33 50 60 55 48 52 51 50 53 61 70 71 70 65 75 78 78 79 84 92 93 93 95 90 91 100 85 98 98 90 88 90 88 86 84
Wind_Speed
9 5 1 4 6 8 8 11 9 9 9 10 10 11 11 10 9 8 8 8 7 6 5 6 8 7 3 4 5 6 5 5 5 6 7 6 6 5 5 5 5 6 7
12 6 5 4 5 7 9 8 10 10 10 11 12 12 12 11 9 7 7 7 6 5 6 8 10 9 7 4 3 3 5 5 5 4 4 3 3 4 4 6 6 7 8
12 12 9 8 6 5 7 8 9 10 10 10 11 12 12 11 10 8 6 5 4 5 10 8 8 8 6 6 5 4 3 2 2 1 1 2 3 4 5 6 7 8 9
16 15 13 12 10 8 7 7 8 9 9 10 10 11 11 11 10 9 7 5 7 8 7 6 5 6 5 5 5 4 4 3 1 1 2 3 4 5 5 6 7 8 8
14 17 15 12 11 9 6 5 7 9 9 9 9 9 9 10 10 10 10 8 7 6 6 6 5 5 4 4 3 2 2 1 1 2 2 3 4 5 5 6 7 7 8
14 15 16 14 12 9 7 1 5 8 7 8 9 9 10 11 11 10 10 10 8 8 7 6 6 5 5 4 3 3 2 1 1 1 2 2 2 4 6 6 7 7 6
13 13 14 15 14 11 8 1 3 4 6 6 7 9 10 11 11 11 10 10 9 9 8 8 8 7 6 6 6 5 4 3 3 3 4 4 5 5 6 6 6 7 6
13 14 14 15 16 14 10 5 5 3 2 3 4 6 8 9 10 11 12 11 10 10 9 9 8 7 6 6 5 4 3 3 3 3 4 5 5 6 6 7 7 8 8
15 16 16 16 17 16 13 11 7 3 2 1 2 4 4 5 6 7 8 9 10 10 10 9 9 8 8 7 6 6 6 6 6 6 6 6 7 7 8 8 8 9 9
14 13 16 18 19 19 15 12 10 6 5 4 3 3 3 2 2 2 4 5 5 6 7 8 8 9 9 8 8 8 8 7 8 7 8 8 8 9 9 9 9 10 10
12 12 16 17 20 21 19 15 13 11 9 8 6 5 5 4 3 3 2 2 2 2 2 3 5 6 7 7 8 9 9 9 8 8 8 8 8 9 9 10 9 9 9
13 13 10 15 18 21 21 18 15 14 13 11 10 9 7 7 7 6 6 6 6 5 4 4 3 4 4 6 7 8 9 9 9 9 9 9 10 9 10 10 9 8 8
12 16 16 14 15 18 20 20 18 17 17 15 15 13 12 11 11 10 10 9 9 9 10 8 7 7 6 6 7 10 11 11 11 11 11 10 11 10 10 10 9 8 8
18 18 18 17 18 19 21 22 21 20 20 20 19 17 16 15 13 13 14 14 13 13 13 12 12 10 10 9 10 10 13 13 13 13 12 12 12 11 11 10 9 8 8
20 18 18 19 19 19 23 22 23 22 23 23 22 21 20 19 17 16 17 17 17 17 17 16 15 14 13 12 13 13 15 16 17 16 15 13 12 12 11 11 10 9 9
23 21 22 21 23 24 23 23 22 22 23 24 24 23 23 22 21 20 19 19 19 19 20 19 17 16 16 16 16 17 18 19 19 17 16 15 13 13 12 11 10 9 9
27 28 28 28 27 30 30 29 27 24 24 24 24 25 24 24 23 22 22 22 21 21 22 20 19 18 18 19 20 20 19 19 18 17 16 15 15 14 13 12 11 10 10
35 35 33 34 32 31 31 31 31 31 28 27 26 26 25 25 24 24 24 24 23 23 23 22 20 20 21 21 21 20 20 19 19 18 17 16 16 15 14 13 13 13 13
41 41 40 39 36 33 33 32 32 33 33 32 34 32 30 30 28 26 25 25 25 24 25 23 22 22 22 22 22 21 21 21 19 19 18 17 17 16 16 15 15 15 15
45 44 45 44 41 38 37 37 36 36 33 34 33 34 34 33 30 30 28 27 26 25 25 24 23 23 23 24 23 22 21 21 20 20 19 19 19 18 18 19 18 18 18
50 50 48 47 46 44 44 44 41 38 34 35 33 33 32 33 34 33 31 29 28 26 26 26 26 26 24 24 24 22 22 22 21 20 20 21 21 21 21 22 22 21 22
47 50 53 53 52 52 51 48 46 44 44 39 37 36 36 36 35 36 34 32 30 29 28 28 27 26 25 25 25 24 24 23 21 21 21 22 23 24 24 25 25 25 25
39 41 44 46 46 50 51 55 55 53 51 48 46 42 41 40 36 37 34 34 36 35 33 32 30 28 28 26 25 26 26 25 23 24 24 24 24 25 26 27 28 29 28
23 30 36 39 39 40 42 46 48 53 57 56 55 51 46 44 42 39 38 38 36 37 37 36 34 32 30 29 28 30 29 29 29 30 28 27 26 27 28 29 31 32 33
16 18 22 26 30 36 43 48 43 43 45 45 46 48 54 50 48 47 44 42 37 39 41 39 38 36 33 33 35 31 33 35 35 35 34 32 30 29 32 34 34 35 36
21 23 25 27 29 31 32 37 47 48 41 42 42 41 41 45 50 54 53 51 49 44 41 39 40 38 37 36 34 35 33 33 34 33 33 35 31 33 34 38 40 40 41
Wind_Direction
225 189 78 70 92 83 65 54 48 45 42 35 29 21 13 7 6 3 359 2 12 27 44 87 96 99 121 191 200 206 241 257 269 269 272 288 298 305 311 313 318 319 324
194 206 187 146 121 79 61 50 39 39 40 36 33 26 18 11 7 5 5 4 18 33 56 105 73 75 79 101 157 170 204 237 248 266 269 283 287 305 311 312 316 315 315
197 196 193 169 161 122 79 53 49 44 43 41 34 30 25 21 16 11 18 15 24 42 92 105 78 83 85 91 103 114 133 167 190 201 236 269 291 295 302 305 309 311 312
196 194 194 183 176 145 109 85 62 51 44 44 42 34 31 29 28 28 29 29 33 58 83 77 72 76 82 92 100 114 126 131 148 234 263 276 289 300 304 312 317 318 317
206 201 200 199 186 154 119 77 67 64 53 47 46 45 41 38 37 38 41 42 43 51 58 62 67 71 77 80 90 96 104 121 202 268 293 305 311 309 310 317 317 317 318
209 212 207 207 197 178 148 98 93 66 55 45 44 46 46 43 41 43 49 57 59 58 59 63 69 81 85 89 88 87 83 70 7 335 331 338 340 331 327 332 327 331 336
203 208 213 214 203 194 173 245 155 87 54 47 47 48 50 51 50 51 52 56 61 68 71 74 77 75 76 71 65 54 48 37 24 3 351 349 354 328 327 327 325 319 316
212 205 214 219 209 199 192 211 199 169 22 38 34 42 47 50 53 55 55 53 55 57 57 57 58 57 52 49 47 46 37 30 4 351 338 336 319 314 316 319 309 304 302
219 223 211 216 216 204 204 202 206 221 266 294 4 13 34 44 51 46 49 50 51 52 54 55 52 51 44 36 28 21 11 4 358 348 340 335 322 320 319 315 305 305 302
224 219 220 218 216 214 212 214 209 257 263 230 270 330 325 2 16 52 42 33 39 45 44 40 39 37 32 29 25 15 10 2 355 350 345 337 324 321 321 310 308 303 300
240 240 228 226 221 218 217 217 224 230 239 238 240 267 286 282 275 287 281 300 332 357 25 23 19 15 14 12 7 1 358 355 351 346 341 329 320 319 312 310 306 305 301
245 253 238 235 230 228 225 226 231 233 235 238 243 249 258 267 260 265 276 283 291 291 293 295 307 320 332 334 335 336 336 334 332 331 330 321 315 317 311 310 310 306 301
241 238 242 243 239 234 234 232 236 242 240 237 241 247 251 255 266 265 265 267 273 275 283 276 277 281 288 298 309 315 314 315 316 316 315 314 314 313 309 311 313 313 316
241 230 235 241 240 238 237 238 244 249 244 244 241 241 246 250 252 259 260 262 265 268 273 273 274 277 280 287 292 297 296 300 305 306 308 308 307 306 306 309 311 315 316
250 243 243 245 247 242 243 246 247 245 243 243 242 245 245 247 249 250 257 260 263 263 267 271 275 279 281 283 287 289 292 295 295 296 297 299 300 300 300 303 308 313 315
251 252 245 250 256 258 249 247 247 244 243 240 240 243 244 247 247 249 251 257 259 259 265 268 271 278 280 284 288 291 291 290 288 288 289 292 292 292 294 296 301 307 315
245 246 252 256 255 253 257 257 255 248 245 243 242 243 245 245 247 250 252 255 258 258 263 266 268 274 279 283 289 292 294 291 286 283 283 285 287 287 287 288 293 298 304
254 255 256 257 261 259 257 252 254 250 248 248 245 245 245 245 248 251 252 256 257 258 260 260 263 271 279 282 285 288 289 288 285 280 279 281 281 282 280 282 285 290 296
257 260 260 259 261 259 260 259 254 252 253 252 252 250 248 249 248 250 250 254 256 257 257 256 261 271 275 277 279 283 286 286 282 278 276 276 276 275 275 275 277 284 290
252 254 259 261 262 262 263 262 259 254 254 255 254 253 251 249 249 249 250 251 252 252 252 256 263 267 270 276 277 279 284 282 278 275 274 273 272 271 272 272 274 277 283
249 252 253 257 262 263 262 263 264 264 262 258 253 252 251 252 251 249 249 251 252 248 248 255 258 263 268 271 270 274 278 278 277 278 275 272 270 269 269 271 274 277 282
248 250 253 254 253 258 261 264 266 267 266 264 258 255 253 254 255 254 251 252 253 248 245 255 260 262 263 266 266 269 273 276 277 277 273 272 270 268 268 270 272 276 280
255 255 256 258 257 253 256 257 258 260 259 259 258 259 263 265 262 257 257 257 252 249 247 252 257 259 259 263 262 267 273 276 277 274 274 273 272 271 271 271 272 275 278
254 251 254 258 260 258 255 256 257 260 262 263 264 262 257 260 263 262 259 258 256 253 250 252 252 256 254 256 257 258 266 271 277 275 273 273 271 272 272 272 274 277 279
261 259 256 257 257 256 254 256 255 256 260 263 262 258 252 251 253 256 256 256 256 255 254 252 250 251 253 255 264 266 264 273 268 271 272 272 270 275 273 271 270 273 277
269 267 269 268 265 262 258 252 251 252 253 258 263 264 261 258 256 256 256 257 258 257 253 252 252 251 251 253 257 258 264 268 270 269 276 270 264 267 271 275 274 270 274